Chariton, IA

1:25 AM CST on December 14, 2017 (GMT -0600)
Chariton Municipal

Weather History for KCNC - January, 2014

Change the Weather History Date:

Saturday, January 25, 2014

  Actual Average Record
Temperature  
Mean Temperature 30 °F -  
Max Temperature 42 °F 34 °F 61 °F (1981)
Min Temperature 19 °F 14 °F -12 °F (1963)
Degree Days  
Heating Degree Days 34    
Moisture  
Dew Point 10 °F    
Average Humidity 52    
Maximum Humidity 93    
Minimum Humidity 28    
Precipitation  
Precipitation 0.00 in - - ()
Sea Level Pressure  
Sea Level Pressure 29.84 in    
Wind  
Wind Speed 18 mph (WNW)    
Max Wind Speed 30 mph    
Max Gust Speed 45 mph    
Visibility 10 miles    
Events Rain , Snow    
Averages and records for this station are not official NWS values.
T = Trace of Precipitation, MM = Missing Value Source: NWS Daily Summary

Daily Weather History Graph

Daily Weather History Graph

Search for Another Location

Airport or City:

Trip Planner

Search our weather history database for the weather conditions in past years. The results will help you decide how hot, cold, wet, or windy it might be!

Date:

Astronomy

Jan. 25, 2014 Rise Set
Actual Time 7:30 AM CST 5:21 PM CST
Civil Twilight 7:00 AM CST 5:51 PM CST
Nautical Twilight 6:27 AM CST 6:24 PM CST
Astronomical Twilight 5:54 AM CST 6:57 PM CST
Moon 2:02 AM CST (1/25) 12:22 PM CST (1/25)
Length of Visible Light 10h 50m
Length of Day
9h 51m
Waning Crescent, 34% of the Moon is Illuminated
Jan 25
Waning Crescent
Jan 30
New
Feb 6
First Quarter
Feb 14
Full
Feb 22
Last Quarter

Hourly Weather History & Observations

Time (CST) Temp. Windchill Dew Point Humidity Pressure Visibility Wind Dir Wind Speed Gust Speed Precip Events Conditions
12:15 AM 42.8 °F 34.3 °F 35.6 °F 76% 29.64 in 10.0 mi WNW 19.6 mph 28.8 mph N/A   Overcast
12:35 AM 41.0 °F 30.9 °F 33.8 °F 76% 29.65 in 10.0 mi NW 24.2 mph 35.7 mph N/A Rain Light Rain
12:55 AM 41.0 °F 30.5 °F 33.8 °F 76% 29.66 in 9.0 mi NW 26.5 mph 38.0 mph N/A Rain Light Rain
1:15 AM 39.2 °F 28.5 °F 33.8 °F 81% 29.66 in 8.0 mi NW 24.2 mph 38.0 mph N/A Rain Light Rain
1:35 AM 37.4 °F 28.5 °F 35.6 °F 93% 29.68 in 2.0 mi NNW 15.0 mph 29.9 mph N/A Rain Light Rain
1:55 AM 37.4 °F 28.2 °F 33.8 °F 87% 29.68 in 8.0 mi NW 16.1 mph - N/A   Overcast
2:15 AM 35.6 °F 25.9 °F 33.8 °F 93% 29.69 in 7.0 mi NW 16.1 mph 24.2 mph N/A Rain Light Rain
2:35 AM 35.6 °F 26.2 °F 32.0 °F 87% 29.70 in 10.0 mi NW 15.0 mph 23.0 mph N/A   Overcast
2:55 AM 35.6 °F 25.2 °F 33.8 °F 93% 29.71 in 7.0 mi NW 18.4 mph - N/A Rain Light Rain
3:15 AM 35.6 °F 25.9 °F 32.0 °F 87% 29.72 in 10.0 mi NW 16.1 mph - N/A   Overcast
3:35 AM 35.6 °F 27.1 °F 32.0 °F 87% 29.72 in 10.0 mi NW 12.7 mph 18.4 mph N/A   Overcast
3:55 AM 35.6 °F 27.1 °F 33.8 °F 93% 29.73 in 10.0 mi NW 12.7 mph - N/A   Overcast
4:15 AM 35.6 °F 26.2 °F 32.0 °F 87% 29.73 in 10.0 mi WNW 15.0 mph 21.9 mph N/A   Overcast
4:35 AM 35.6 °F 25.5 °F 32.0 °F 87% 29.73 in 10.0 mi NW 17.3 mph - N/A   Mostly Cloudy
4:55 AM 35.6 °F 26.2 °F 32.0 °F 87% 29.73 in 10.0 mi NW 15.0 mph - N/A   Mostly Cloudy
5:15 AM 35.6 °F 25.5 °F 30.2 °F 81% 29.74 in 10.0 mi NW 17.3 mph 25.3 mph N/A   Overcast
5:35 AM 35.6 °F 24.5 °F 30.2 °F 81% 29.75 in 10.0 mi NW 20.7 mph 31.1 mph N/A   Overcast
5:55 AM 32.0 °F 18.4 °F 26.6 °F 80% 29.78 in 4.0 mi NNW 26.5 mph 44.9 mph N/A Snow Light Snow
6:15 AM 32.0 °F 18.6 °F 24.8 °F 75% 29.79 in 10.0 mi NNW 25.3 mph 36.8 mph N/A Snow Light Snow
6:35 AM 30.2 °F 15.7 °F 23.0 °F 75% 29.80 in 10.0 mi NNW 27.6 mph 39.1 mph N/A Snow Light Snow
6:55 AM 28.4 °F 13.8 °F 19.4 °F 69% 29.82 in 10.0 mi NNW 25.3 mph 35.7 mph N/A Snow Light Snow
7:15 AM 26.6 °F 12.0 °F 14.0 °F 59% 29.84 in 10.0 mi NW 23.0 mph - N/A Snow Light Snow
7:35 AM 24.8 °F 9.6 °F 10.4 °F 54% 29.86 in 10.0 mi NNW 23.0 mph 29.9 mph N/A   Overcast
7:55 AM 24.8 °F 11.9 °F 10.4 °F 54% 29.88 in 10.0 mi NNW 16.1 mph 27.6 mph N/A   Mostly Cloudy
8:15 AM 24.8 °F 10.3 °F 8.6 °F 50% 29.89 in 10.0 mi NW 20.7 mph 27.6 mph N/A   Partly Cloudy
8:35 AM 21.2 °F 4.9 °F 1.4 °F 42% 29.90 in 10.0 mi NW 23.0 mph 29.9 mph N/A   Clear
8:55 AM 21.2 °F 5.6 °F -0.4 °F 39% 29.92 in 10.0 mi NW 20.7 mph 29.9 mph N/A   Clear
9:15 AM 19.4 °F 0.5 °F -2.2 °F 39% 29.93 in 10.0 mi NW 29.9 mph 39.1 mph N/A Snow Light Snow
9:35 AM 21.2 °F 6.4 °F -0.4 °F 39% 29.95 in 10.0 mi NW 18.4 mph 31.1 mph N/A Snow Light Snow
9:55 AM 21.2 °F 5.2 °F -0.4 °F 39% 29.96 in 10.0 mi NNW 21.9 mph 33.4 mph N/A   Clear
10:15 AM 19.4 °F 2.1 °F -2.2 °F 39% 29.96 in 10.0 mi NNW 24.2 mph 33.4 mph N/A Snow Light Snow
10:35 AM 21.2 °F 4.5 °F -0.4 °F 39% 29.97 in 10.0 mi NW 24.2 mph - N/A   Clear
10:55 AM 21.2 °F 5.2 °F 1.4 °F 42% 29.98 in 10.0 mi NW 21.9 mph 35.7 mph N/A   Clear
11:15 AM 21.2 °F 3.9 °F -0.4 °F 39% 29.98 in 10.0 mi NW 26.5 mph 33.4 mph N/A   Clear
11:35 AM 21.2 °F 4.2 °F -0.4 °F 39% 29.98 in 10.0 mi NNW 25.3 mph 34.5 mph N/A   Clear
11:55 AM 23.0 °F 8.7 °F 1.4 °F 39% 29.98 in 10.0 mi NNW 18.4 mph 31.1 mph N/A   Clear
12:15 PM 23.0 °F 6.9 °F -0.4 °F 36% 29.98 in 10.0 mi NNW 24.2 mph 32.2 mph N/A   Clear
12:35 PM 23.0 °F 7.2 °F -0.4 °F 36% 29.98 in 10.0 mi NW 23.0 mph 28.8 mph N/A   Clear
12:55 PM 23.0 °F 6.6 °F -2.2 °F 33% 29.97 in 10.0 mi NNW 25.3 mph 32.2 mph N/A   Clear
1:15 PM 24.8 °F 10.7 °F -0.4 °F 34% 29.97 in 10.0 mi NW 19.6 mph 27.6 mph N/A   Clear
1:35 PM 24.8 °F 10.0 °F -2.2 °F 31% 29.98 in 10.0 mi NW 21.9 mph 27.6 mph N/A   Clear
1:55 PM 24.8 °F 9.6 °F -0.4 °F 34% 29.98 in 10.0 mi NW 23.0 mph 31.1 mph N/A   Clear
2:15 PM 24.8 °F 11.9 °F -2.2 °F 31% 29.97 in 10.0 mi WNW 16.1 mph 28.8 mph N/A   Clear
2:35 PM 26.6 °F 12.4 °F -2.2 °F 29% 29.97 in 10.0 mi NW 21.9 mph 27.6 mph N/A   Clear
2:55 PM 26.6 °F 12.7 °F -0.4 °F 31% 29.96 in 10.0 mi NW 20.7 mph - N/A   Clear
3:15 PM 24.8 °F 12.9 °F -2.2 °F 31% 29.95 in 10.0 mi NW 13.8 mph - N/A   Clear
3:35 PM 26.6 °F 12.7 °F -0.4 °F 31% 29.95 in - NW 20.7 mph - N/A   Clear
3:55 PM 24.8 °F 12.4 °F -4.0 °F 28% 29.95 in 10.0 mi WNW 15.0 mph 21.9 mph N/A   Clear
4:15 PM 24.8 °F 12.9 °F -4.0 °F 28% 29.96 in 10.0 mi WNW 13.8 mph - N/A   Clear
4:35 PM 24.8 °F 14.6 °F -4.0 °F 28% 29.95 in 10.0 mi WNW 10.4 mph 18.4 mph N/A   Clear
4:55 PM 24.8 °F 16.9 °F -2.2 °F 31% 29.95 in 10.0 mi NW 6.9 mph - N/A   Partly Cloudy
5:15 PM 24.8 °F 13.4 °F -2.2 °F 31% 29.94 in 10.0 mi WNW 12.7 mph - N/A   Mostly Cloudy
5:35 PM 23.0 °F 15.8 °F -2.2 °F 33% 29.94 in 10.0 mi WNW 5.8 mph - N/A   Partly Cloudy
5:55 PM 21.2 °F 14.9 °F -2.2 °F 36% 29.94 in 10.0 mi WNW 4.6 mph - N/A   Partly Cloudy
6:15 PM 23.0 °F 17.0 °F -2.2 °F 33% 29.93 in 10.0 mi SW 4.6 mph - N/A   Mostly Cloudy
6:35 PM 23.0 °F 18.4 °F -2.2 °F 33% 29.92 in 8.0 mi SW 3.5 mph - N/A   Overcast
6:55 PM 23.0 °F 18.4 °F -0.4 °F 36% 29.91 in 10.0 mi SW 3.5 mph - N/A   Overcast
7:15 PM 23.0 °F - 3.2 °F 43% 29.90 in 10.0 mi Calm Calm - N/A   Overcast
7:35 PM 21.2 °F 14.9 °F 5.0 °F 50% 29.88 in 10.0 mi South 4.6 mph - N/A   Overcast
7:55 PM 23.0 °F 18.4 °F 5.0 °F 46% 29.87 in 10.0 mi South 3.5 mph - N/A   Overcast
8:15 PM 23.0 °F 15.8 °F 5.0 °F 46% 29.85 in 10.0 mi SSE 5.8 mph - N/A   Overcast
8:35 PM 23.0 °F 13.9 °F 6.8 °F 50% 29.82 in 10.0 mi South 8.1 mph - N/A   Overcast
8:55 PM 23.0 °F 14.7 °F 6.8 °F 50% 29.80 in 10.0 mi South 6.9 mph - N/A   Overcast
9:15 PM 24.8 °F 16.1 °F 5.0 °F 43% 29.78 in 10.0 mi SSE 8.1 mph - N/A   Overcast
9:35 PM 24.8 °F 14.6 °F 5.0 °F 43% 29.74 in 10.0 mi SSE 10.4 mph - N/A   Overcast
9:55 PM 24.8 °F 14.6 °F 5.0 °F 43% 29.74 in 10.0 mi South 10.4 mph - N/A   Overcast
10:15 PM 24.8 °F 13.4 °F 5.0 °F 43% 29.72 in 10.0 mi South 12.7 mph - N/A   Overcast
10:35 PM 26.6 °F 14.3 °F 5.0 °F 40% 29.70 in 10.0 mi South 16.1 mph - N/A   Overcast
10:55 PM 26.6 °F 13.8 °F 5.0 °F 40% 29.67 in 10.0 mi South 17.3 mph - N/A   Overcast
11:15 PM 26.6 °F 13.1 °F 5.0 °F 40% 29.63 in 10.0 mi South 19.6 mph - N/A   Overcast
11:35 PM 28.4 °F 16.2 °F 6.8 °F 40% 29.61 in 10.0 mi South 17.3 mph 24.2 mph N/A   Overcast
11:55 PM 28.4 °F 15.8 °F 6.8 °F 40% 29.57 in 10.0 mi South 18.4 mph 24.2 mph N/A   Overcast